Snowfall_Accumulation
nan nan nan nan nan nan nan 0.0 0.2 0.0 0.0 0.1 0.0 0.4 0.0 nan 0.0 0.0 0.0 0.0 0.0 0.0 0.0 0.0 0.0 0.0 0.0 0.0 0.0 0.0 0.0 0.0 0.4 0.0 0.0 0.0 0.0 0.0 0.0 1.7 0.5 1.3 1.7 1.5
nan nan nan nan nan nan 0.0 0.0 0.0 0.0 0.0 0.8 0.3 0.0 0.0 0.0 0.0 0.0 0.0 0.0 0.0 0.0 0.0 0.0 0.0 0.0 0.0 0.0 0.0 0.0 0.0 0.0 0.3 0.2 0.1 0.0 0.0 0.0 0.0 0.0 0.1 0.1 4.6 0.2
nan nan nan nan nan nan 0.0 0.0 0.5 0.0 0.0 0.0 0.1 0.2 0.1 0.1 0.0 0.0 0.0 0.0 0.0 0.0 0.0 0.0 0.0 0.0 0.0 0.0 0.0 nan nan 0.0 0.0 0.3 0.0 0.0 0.0 0.0 0.0 0.0 0.6 0.1 0.0 0.0
nan nan nan nan nan nan 0.0 0.0 0.6 0.0 1.3 0.2 0.0 0.0 0.0 0.0 0.1 0.0 0.0 0.0 0.0 0.0 0.5 0.0 0.0 0.0 0.0 0.0 nan 0.0 0.0 0.0 0.0 0.0 0.0 0.0 0.0 0.0 0.0 0.0 0.0 0.1 0.0 0.0
nan nan nan nan nan nan 0.0 0.0 0.0 0.0 0.6 0.0 0.0 0.0 0.3 0.0 0.0 0.0 0.0 0.1 0.0 0.0 0.5 0.1 0.5 0.1 0.0 0.0 0.0 0.0 0.0 0.5 0.0 0.1 0.0 0.0 0.0 0.0 0.0 0.0 0.0 0.0 0.0 0.0
nan nan nan nan nan nan 0.0 0.0 0.0 0.0 nan 0.0 0.6 0.5 0.1 0.2 0.0 0.0 0.0 0.0 0.0 0.0 0.1 0.0 0.0 0.0 0.0 0.0 0.0 0.0 0.0 0.2 0.5 0.5 0.0 0.0 0.1 0.0 0.0 0.0 0.0 0.0 0.0 0.0
nan nan nan nan nan nan 0.0 0.0 0.0 0.2 1.9 0.2 0.1 0.1 0.0 0.0 0.1 0.2 0.0 0.0 0.1 0.0 0.0 0.0 0.0 0.0 0.0 0.0 0.0 0.0 0.1 0.0 0.5 1.6 0.0 1.6 0.0 0.0 0.0 0.0 0.0 0.0 0.0 0.0
nan nan nan nan nan nan 0.0 0.0 0.0 0.1 3.0 0.1 0.0 0.0 0.0 0.0 0.0 0.0 0.0 0.0 0.0 0.0 0.0 0.0 0.0 0.0 0.0 0.0 0.0 0.0 0.0 0.2 1.7 1.6 0.3 0.0 0.0 0.0 0.0 0.0 0.0 0.0 0.0 0.0
nan nan nan nan nan nan 0.0 0.0 0.0 0.0 0.7 0.5 0.0 0.0 0.0 0.0 0.0 0.0 0.0 0.0 0.0 0.0 0.0 0.0 1.0 0.1 0.0 0.0 0.0 0.0 0.0 0.1 0.4 0.8 1.4 0.1 0.0 0.0 0.0 0.0 0.0 0.0 0.0 0.0
nan nan nan nan nan nan 0.0 0.0 0.0 0.0 1.1 0.0 0.0 0.1 0.3 0.0 0.1 0.1 0.0 0.0 0.0 0.0 0.1 0.7 0.4 0.3 0.0 0.0 0.0 0.0 0.1 0.4 2.0 0.7 1.3 0.1 0.0 0.0 0.0 0.0 0.0 0.0 0.0 0.0
nan nan nan nan nan nan 0.0 0.0 0.0 0.0 0.0 0.0 0.0 0.0 0.0 0.0 0.0 0.3 0.0 0.7 0.3 0.1 0.8 0.5 0.1 0.1 0.0 0.0 0.0 0.0 0.0 0.2 0.2 0.2 1.1 3.8 0.0 0.0 0.0 0.0 0.0 0.0 0.0 0.0
nan nan nan nan nan nan nan 0.0 0.0 0.0 0.0 0.1 0.0 0.0 0.0 0.0 0.0 0.0 0.0 0.1 0.0 0.0 0.6 0.7 0.4 0.3 0.1 0.1 0.0 0.0 0.0 0.0 0.0 0.0 0.2 0.0 0.0 0.0 0.0 0.0 0.0 0.0 0.0 0.0
nan nan nan nan nan nan nan 0.0 0.0 0.0 0.2 0.0 0.0 0.0 0.0 0.0 0.0 0.0 0.1 0.0 0.0 0.0 0.0 0.3 0.4 1.9 0.4 0.5 0.0 0.0 0.0 0.0 0.0 0.0 0.0 0.0 0.0 0.0 0.0 0.0 0.0 0.0 0.0 0.0
nan nan nan nan nan nan nan 0.0 0.0 0.0 0.1 2.2 0.0 0.0 0.0 0.0 0.0 0.0 0.0 0.0 0.0 0.0 0.0 0.8 1.6 2.6 0.2 0.6 0.2 0.3 0.0 0.0 0.0 0.0 0.0 0.0 0.0 0.0 0.0 0.0 0.0 0.0 0.0 0.0
nan nan nan nan nan nan nan 0.0 0.0 0.0 0.3 0.8 0.1 0.0 0.0 0.0 0.0 0.0 0.0 0.0 0.0 0.4 2.4 3.6 2.1 0.0 0.3 0.0 0.2 0.2 0.0 0.0 0.0 0.0 0.0 0.0 0.0 0.0 0.0 0.0 0.0 0.0 0.0 0.0
nan nan nan nan nan nan 0.0 0.1 0.0 0.0 0.0 4.6 3.8 0.0 0.0 0.0 0.0 0.0 0.0 0.0 0.0 0.0 1.0 1.3 0.2 0.0 0.2 2.6 0.4 0.0 0.0 0.0 0.0 0.0 0.0 0.0 0.0 0.0 0.0 0.0 0.0 0.0 0.0 0.0
nan nan nan nan nan 0.0 0.1 0.2 0.0 nan 0.0 5.2 8.3 1.3 0.0 0.0 0.0 0.0 0.0 0.0 0.0 0.1 0.2 1.3 0.0 0.0 0.2 2.0 1.3 0.0 0.0 0.0 0.0 0.0 0.0 0.0 0.0 0.0 0.0 0.0 0.0 0.0 0.0 0.0
nan nan nan nan nan nan 0.0 0.0 nan nan 0.8 2.2 9.3 3.0 0.6 0.0 1.4 1.8 0.0 0.4 0.9 1.4 0.4 0.4 0.1 0.1 0.8 4.0 0.0 0.0 0.0 0.0 0.0 0.0 0.0 0.0 0.0 0.0 0.0 0.0 0.0 0.0 0.0 0.0
nan nan nan 0.0 0.0 0.0 0.0 nan nan 0.0 0.5 4.7 3.0 2.3 3.9 0.0 0.5 0.6 1.6 1.1 6.3 0.8 3.2 0.7 0.1 0.9 4.4 0.0 0.0 0.0 0.0 0.0 0.2 0.1 0.0 0.0 0.0 0.0 0.0 0.0 0.0 0.0 0.0 0.0
nan 0.0 0.0 0.5 0.0 nan nan 0.0 1.7 1.5 2.7 6.1 2.6 0.3 2.4 0.2 0.1 0.9 0.9 1.2 2.5 5.8 0.8 0.0 2.8 0.4 0.0 0.0 0.3 0.4 1.0 0.8 0.6 1.4 0.5 0.0 0.1 0.0 0.0 0.0 0.0 0.0 0.0 0.0
0.0 1.3 2.2 0.0 nan 0.1 1.8 14.0 12.0 6.8 6.7 0.5 0.4 0.3 0.9 0.0 2.7 2.0 0.5 5.1 3.8 7.9 1.7 1.6 2.3 1.1 3.0 2.1 2.1 1.6 1.2 1.1 1.0 0.6 0.5 0.2 0.2 0.1 0.0 0.0 0.0 0.0 0.0 0.0
0.0 0.6 0.0 0.1 2.0 13.4 17.2 15.0 5.1 2.7 2.5 0.8 2.6 2.7 1.2 1.3 0.3 3.8 2.8 4.2 4.0 7.8 2.7 10.3 4.2 4.4 0.4 1.5 3.2 1.5 1.1 1.3 1.0 0.5 1.3 0.3 0.4 0.2 0.1 0.0 0.0 0.0 0.0 0.0
0.0 3.5 11.9 15.5 23.3 51.3 17.8 15.8 10.4 7.4 2.9 2.9 3.8 5.4 2.7 4.3 3.7 6.3 2.3 9.0 5.4 0.2 8.8 3.9 5.0 1.2 1.1 2.2 1.9 1.0 0.8 2.1 1.6 0.9 0.7 0.6 0.5 0.2 0.2 0.0 0.0 0.0 0.0 0.0
5.1 19.9 50.8 18.8 23.6 7.1 4.7 2.9 2.7 1.1 1.3 1.4 1.4 2.9 4.3 4.2 7.9 4.0 11.4 1.2 1.9 11.9 14.6 6.3 1.9 1.1 1.1 0.9 0.6 1.3 1.2 1.6 1.7 0.9 0.7 1.0 1.0 0.5 0.1 0.0 0.0 0.0 0.0 0.0
16.4 16.6 34.0 15.1 3.4 5.0 5.0 4.2 2.7 1.2 0.7 1.8 3.4 3.5 2.1 5.3 12.3 6.1 3.7 9.0 14.0 8.3 6.9 2.2 0.8 0.2 0.6 0.4 0.2 0.5 0.9 2.1 2.1 1.2 0.7 1.5 1.3 1.1 0.3 0.1 0.0 0.0 0.0 0.0
15.7 13.4 11.9 1.1 4.7 7.1 4.8 4.7 3.7 0.7 0.9 0.8 3.3 8.9 11.8 7.9 7.7 10.5 8.8 12.4 9.1 4.7 2.6 0.7 0.4 0.2 0.3 0.2 0.1 0.4 1.7 1.6 2.3 4.0 1.3 0.6 1.7 0.9 0.1 0.0 0.1 0.1 0.1 0.1
19.0 19.6 1.5 2.9 3.5 5.3 3.0 3.0 3.3 1.3 3.7 8.2 7.9 13.9 6.8 7.6 9.9 9.6 4.2 9.8 3.4 2.7 1.5 0.8 0.6 1.4 1.6 0.7 0.4 0.5 1.1 0.9 1.7 4.2 2.5 1.6 2.9 1.9 2.0 0.4 0.1 0.1 0.2 0.2
Water_Equivalent
nan nan nan nan nan nan nan 0.00 0.08 0.00 0.00 0.05 0.00 0.14 0.00 nan 0.00 0.00 0.00 0.00 0.00 0.00 0.00 0.00 0.00 0.00 0.00 0.00 0.00 0.00 0.00 0.00 0.14 0.00 0.00 0.00 0.00 0.00 0.00 0.34 0.09 0.28 0.31 0.21
nan nan nan nan nan nan 0.00 0.00 0.00 0.00 0.00 0.24 0.09 0.00 0.00 0.00 0.00 0.00 0.00 0.00 0.00 0.00 0.00 0.00 0.00 0.00 0.00 0.00 0.00 0.00 0.00 0.02 0.08 0.06 0.05 0.00 0.00 0.00 0.00 0.00 0.02 0.02 0.66 0.03
nan nan nan nan nan nan 0.00 0.00 0.18 0.00 0.00 0.00 0.03 0.05 0.03 0.01 0.00 0.00 0.00 0.00 0.00 0.00 0.00 0.00 0.00 0.00 0.00 0.00 0.00 nan nan 0.00 0.00 0.07 0.00 0.00 0.00 0.00 0.00 0.00 0.16 0.02 0.01 0.00
nan nan nan nan nan nan 0.00 0.00 0.22 0.00 0.38 0.06 0.01 0.01 0.00 0.00 0.01 0.00 0.00 0.00 0.00 0.01 0.09 0.01 0.00 0.00 0.00 0.00 nan 0.00 0.00 0.00 0.00 0.00 0.00 0.00 0.00 0.00 0.00 0.00 0.00 0.04 0.00 0.00
nan nan nan nan nan nan 0.00 0.01 0.01 0.00 0.16 0.00 0.01 0.01 0.08 0.00 0.00 0.01 0.00 0.01 0.00 0.00 0.09 0.02 0.10 0.02 0.00 0.01 0.00 0.00 0.00 0.10 0.00 0.04 0.00 0.00 0.00 0.00 0.00 0.00 0.00 0.00 0.00 0.00
nan nan nan nan nan nan 0.00 0.00 0.00 0.00 nan 0.00 0.13 0.13 0.03 0.03 0.00 0.00 0.00 0.00 0.00 0.00 0.02 0.00 0.00 0.00 0.00 0.00 0.00 0.00 0.00 0.05 0.11 0.07 0.00 0.00 0.03 0.00 0.00 0.00 0.00 0.00 0.00 0.00
nan nan nan nan nan nan 0.00 0.00 0.00 0.06 0.39 0.05 0.03 0.02 0.01 0.01 0.03 0.05 0.00 0.00 0.02 0.00 0.00 0.00 0.00 0.00 0.00 0.00 0.00 0.00 0.02 0.01 0.10 0.42 0.01 0.25 0.00 0.00 0.00 0.00 0.00 0.00 0.00 0.00
nan nan nan nan nan nan 0.00 0.00 0.00 0.04 0.60 0.02 0.00 0.00 0.00 0.00 0.00 0.00 0.00 0.00 0.00 0.00 0.00 0.00 0.00 0.00 0.00 0.00 0.00 0.00 0.00 0.03 0.28 0.29 0.07 0.00 0.00 0.00 0.00 0.00 0.00 0.00 0.00 0.00
nan nan nan nan nan nan 0.00 0.00 0.00 0.00 0.16 0.11 0.00 0.00 0.00 0.00 0.00 0.00 0.00 0.00 0.00 0.00 0.00 0.00 0.13 0.01 0.00 0.00 0.00 0.00 0.00 0.01 0.05 0.10 0.15 0.01 0.00 0.00 0.00 0.00 0.00 0.00 0.00 0.00
nan nan nan nan nan nan 0.00 0.00 0.00 0.00 0.30 0.00 0.00 0.02 0.06 0.00 0.02 0.03 0.00 0.00 0.00 0.00 0.01 0.11 0.06 0.07 0.00 0.01 0.00 0.00 0.01 0.05 0.26 0.11 0.17 0.01 0.00 0.00 0.00 0.00 0.00 0.00 0.00 0.00
nan nan nan nan nan nan 0.00 0.00 0.00 0.00 0.01 0.00 0.00 0.00 0.00 0.00 0.00 0.07 0.00 0.11 0.06 0.03 0.13 0.07 0.01 0.01 0.00 0.00 0.00 0.00 0.00 0.04 0.04 0.04 0.16 0.53 0.00 0.00 0.00 0.00 0.00 0.00 0.00 0.00
nan nan nan nan nan nan nan 0.00 0.00 0.00 0.00 0.01 0.00 0.00 0.00 0.00 0.00 0.00 0.00 0.02 0.01 0.00 0.11 0.09 0.07 0.04 0.01 0.01 0.00 0.00 0.00 0.00 0.00 0.00 0.03 0.00 0.00 0.00 0.00 0.00 0.00 0.00 0.00 0.00
nan nan nan nan nan nan nan 0.00 0.00 0.00 0.04 0.00 0.00 0.00 0.00 0.00 0.00 0.00 0.01 0.00 0.00 0.00 0.00 0.06 0.11 0.25 0.07 0.05 0.00 0.00 0.00 0.00 0.00 0.00 0.00 0.00 0.00 0.00 0.00 0.00 0.00 0.00 0.00 0.00
nan nan nan nan nan nan nan 0.00 0.00 0.00 0.02 0.35 0.01 0.00 0.00 0.00 0.00 0.00 0.00 0.00 0.00 0.00 0.00 0.17 0.31 0.38 0.04 0.10 0.04 0.04 0.00 0.00 0.00 0.00 0.00 0.00 0.00 0.00 0.00 0.00 0.00 0.00 0.00 0.00
nan nan nan nan nan nan nan 0.00 0.00 0.00 0.05 0.15 0.02 0.00 0.00 0.00 0.00 0.00 0.00 0.00 0.00 0.09 0.39 0.60 0.28 0.00 0.05 0.00 0.03 0.04 0.00 0.00 0.00 0.00 0.00 0.00 0.00 0.00 0.00 0.00 0.00 0.00 0.00 0.00
nan nan nan nan nan nan 0.00 0.04 0.00 0.00 0.00 0.91 0.59 0.00 0.00 0.00 0.00 0.00 0.00 0.00 0.00 0.01 0.21 0.20 0.03 0.00 0.03 0.42 0.05 0.00 0.00 0.00 0.00 0.00 0.00 0.00 0.00 0.00 0.00 0.00 0.00 0.00 0.00 0.00
nan nan nan nan nan 0.00 0.03 0.04 0.00 nan 0.00 1.08 1.29 0.33 0.01 0.00 0.00 0.00 0.00 0.00 0.00 0.03 0.04 0.19 0.00 0.01 0.04 0.30 0.13 0.00 0.00 0.00 0.00 0.00 0.00 0.00 0.00 0.00 0.00 0.00 0.00 0.00 0.00 0.00
nan nan nan nan nan nan 0.00 0.00 nan nan 0.19 0.45 1.80 0.82 0.14 0.00 0.31 0.35 0.00 0.12 0.22 0.27 0.08 0.07 0.01 0.01 0.12 0.48 0.00 0.00 0.00 0.00 0.00 0.00 0.00 0.00 0.00 0.00 0.00 0.00 0.00 0.00 0.00 0.00
nan nan nan 0.00 0.00 0.00 0.00 nan nan 0.00 0.11 0.91 0.74 0.68 1.21 0.00 0.12 0.14 0.32 0.23 0.95 0.14 0.45 0.10 0.02 0.14 0.68 0.00 0.00 0.00 0.00 0.01 0.02 0.01 0.00 0.00 0.00 0.00 0.00 0.00 0.00 0.00 0.00 0.00
nan 0.00 0.00 0.18 0.00 nan nan 0.00 0.62 0.40 0.53 1.05 0.48 0.12 0.65 0.05 0.02 0.17 0.17 0.25 0.46 1.54 0.13 0.01 0.37 0.09 0.00 0.01 0.05 0.06 0.16 0.12 0.08 0.19 0.08 0.01 0.02 0.00 0.00 0.00 0.00 0.00 0.00 0.00
0.00 0.36 0.62 0.00 nan 0.02 0.43 2.67 2.32 1.34 1.25 0.12 0.10 0.10 0.23 0.00 0.61 0.34 0.08 1.06 0.75 1.47 0.44 0.23 0.46 0.18 0.40 0.33 0.32 0.25 0.18 0.15 0.15 0.09 0.07 0.02 0.03 0.02 0.00 0.00 0.00 0.00 0.00 0.00
0.00 0.17 0.00 0.01 0.50 2.78 3.27 2.88 1.19 0.57 0.64 0.19 0.51 0.48 0.18 0.21 0.05 0.57 0.51 0.80 0.81 1.35 0.48 1.48 0.62 0.61 0.06 0.21 0.43 0.22 0.16 0.19 0.13 0.07 0.18 0.05 0.06 0.03 0.02 0.00 0.00 0.00 0.00 0.00
0.00 0.81 2.83 3.21 4.70 8.23 3.07 2.23 1.95 1.64 0.59 0.71 0.75 1.10 0.51 0.65 0.57 0.99 0.36 1.42 1.01 0.06 1.46 0.62 0.68 0.17 0.15 0.30 0.25 0.14 0.13 0.31 0.22 0.12 0.09 0.09 0.07 0.03 0.04 0.00 0.00 0.00 0.00 0.00
1.09 4.33 8.98 3.18 3.65 1.22 0.91 0.55 0.64 0.29 0.37 0.31 0.28 0.65 0.74 0.71 1.31 0.66 1.98 0.18 0.25 1.66 1.72 0.80 0.34 0.15 0.14 0.12 0.09 0.17 0.15 0.21 0.24 0.15 0.12 0.15 0.19 0.10 0.04 0.02 0.00 0.00 0.00 0.00
3.62 3.51 5.27 2.54 0.67 0.98 0.95 1.10 0.76 0.39 0.18 0.37 0.65 0.72 0.32 1.19 2.09 0.87 0.69 1.19 1.88 1.05 0.91 0.41 0.25 0.03 0.08 0.05 0.03 0.06 0.11 0.27 0.27 0.15 0.13 0.30 0.25 0.21 0.07 0.03 0.00 0.00 0.00 0.00
3.76 3.00 2.23 0.19 1.04 1.42 1.11 1.29 0.94 0.24 0.20 0.23 0.67 1.78 2.12 1.48 1.32 1.50 1.29 1.66 1.14 0.84 0.60 0.20 0.09 0.02 0.04 0.03 0.02 0.05 0.22 0.20 0.29 0.53 0.19 0.08 0.26 0.14 0.03 0.01 0.02 0.02 0.02 0.02
4.51 3.76 0.26 0.57 0.79 0.99 0.49 0.44 0.58 0.26 0.84 1.73 1.63 2.17 1.26 1.45 1.44 1.28 0.80 1.51 0.64 0.54 0.34 0.18 0.09 0.19 0.21 0.09 0.05 0.06 0.14 0.11 0.21 0.52 0.32 0.22 0.42 0.29 0.32 0.08 0.02 0.03 0.04 0.04
SL_Ratio
nan nan nan nan nan nan nan nan 2.5 nan nan 2.5 3.3 2.6 nan nan nan nan nan nan nan nan nan nan nan nan nan nan nan nan nan nan 2.6 nan nan nan nan nan nan 5.1 5.3 4.9 5.5 7.2
nan nan nan nan nan nan nan nan nan nan nan 3.4 3.1 nan nan nan nan nan nan nan nan nan nan 0.0 nan nan nan nan nan nan nan 2.4 3.2 2.8 2.7 nan nan nan nan nan 3.7 5.1 7.0 6.6
nan nan nan nan nan nan nan nan 3.0 nan nan nan 4.5 4.6 4.5 4.6 nan nan nan nan nan nan 5.0 nan nan nan nan nan nan nan nan nan nan 3.6 nan nan nan nan nan nan 3.8 4.5 3.8 nan
nan nan nan nan nan nan nan nan 2.8 nan 3.3 3.9 4.0 4.7 nan 5.0 4.5 nan nan 5.0 nan 5.3 5.5 5.5 5.0 nan nan nan nan nan nan 2.5 nan nan nan nan nan nan nan 2.5 nan 4.0 nan nan
nan nan nan nan nan nan nan 2.6 2.8 nan 3.6 nan 3.8 3.5 4.4 4.6 4.3 5.6 5.0 4.5 nan nan 4.9 5.3 5.1 4.9 6.7 6.2 nan nan nan 5.1 5.3 3.3 nan nan nan nan nan nan nan nan nan nan
nan nan nan nan nan nan nan nan nan nan nan nan 4.5 4.2 4.6 4.7 nan 6.7 0.0 4.2 5.3 4.6 5.5 nan nan nan nan nan 7.5 nan 6.0 3.8 4.6 6.7 nan nan 3.3 nan nan nan nan nan nan nan
nan nan nan nan nan nan nan nan nan 3.4 4.9 4.6 4.5 4.0 4.0 4.7 4.6 4.9 nan nan 5.2 5.4 nan nan nan nan nan nan nan nan 6.0 6.2 5.0 3.9 2.7 6.2 2.5 nan nan nan nan nan nan nan
nan nan nan nan nan nan nan nan nan 2.9 4.9 4.5 nan nan 5.5 nan nan 0.0 nan nan nan nan nan nan 5.0 nan nan nan nan nan 5.0 6.5 6.2 5.6 4.2 nan nan nan nan nan nan nan nan nan
nan nan nan nan nan nan nan nan nan nan 4.3 4.3 nan nan nan 2.9 nan nan nan nan nan nan nan 5.0 7.8 7.3 5.0 nan nan nan nan 6.7 7.4 8.1 9.2 11.5 nan nan nan nan nan nan nan nan
nan nan nan nan nan nan nan nan nan nan 3.6 nan nan 4.3 4.1 nan 4.6 4.6 nan nan nan nan 4.7 6.2 7.7 4.2 6.7 7.1 nan 8.0 7.6 7.1 7.7 6.5 7.7 5.0 nan nan nan 5.0 nan nan nan nan
nan nan nan nan nan nan nan nan nan nan 4.5 nan nan nan nan nan nan 4.9 nan 6.1 4.7 4.5 5.8 6.2 6.0 6.7 nan nan nan nan 9.2 6.4 6.7 6.2 7.4 7.2 nan nan nan nan nan nan nan nan
nan nan nan nan nan nan nan nan nan nan nan 5.3 nan nan nan nan nan nan nan 5.6 5.3 5.0 5.3 7.0 6.7 7.4 7.4 8.0 11.4 nan 8.3 nan nan 8.8 8.5 0.0 nan nan nan nan nan nan nan nan
nan nan nan nan nan nan nan nan nan nan 4.2 4.4 10.0 nan nan nan nan nan 5.9 nan nan nan nan 4.3 3.7 7.4 5.7 8.7 7.7 6.9 nan nan nan 7.5 nan nan nan nan nan nan nan nan nan nan
nan nan nan nan nan nan nan nan nan nan 4.6 6.2 4.8 nan nan nan nan nan nan nan nan nan nan 4.9 5.0 6.7 4.0 6.6 5.9 6.4 nan 5.0 nan nan nan nan nan nan nan nan nan nan nan nan
nan nan nan nan nan nan nan nan nan nan 5.7 5.4 4.4 nan nan nan nan nan nan nan 5.0 4.8 6.1 6.1 7.5 5.0 6.4 4.5 6.0 6.0 nan nan nan nan nan nan nan nan nan nan nan nan nan nan
nan nan nan nan nan nan nan 3.0 nan nan nan 5.1 6.3 5.0 nan nan nan nan nan nan nan 3.1 4.8 6.6 6.1 0.0 6.2 6.3 7.8 nan nan nan nan nan nan nan nan nan nan nan nan nan nan nan
nan nan nan nan nan nan 4.1 4.2 nan nan nan 4.8 6.4 3.8 3.6 nan nan 2.9 nan nan nan 3.3 5.0 7.0 6.2 5.6 5.6 6.6 9.6 nan nan nan nan nan nan nan nan nan nan nan nan nan nan nan
nan nan nan nan nan nan 5.0 nan nan nan 4.2 4.8 5.1 3.7 4.1 2.5 4.3 5.2 nan 3.8 4.0 5.3 5.1 6.3 5.9 5.5 6.3 8.2 nan nan nan nan nan nan nan nan nan nan nan nan nan nan nan nan
nan nan nan nan nan nan nan nan nan nan 4.6 5.2 4.1 3.3 3.2 3.6 4.4 4.5 4.9 4.6 6.7 5.7 7.2 6.8 6.3 6.6 6.4 10.0 nan nan nan 6.8 7.4 6.7 6.7 10.0 10.0 nan nan nan nan nan nan nan
nan nan 6.7 2.7 nan nan nan 3.3 2.8 3.7 5.2 5.8 5.3 2.5 3.8 3.7 4.6 5.0 5.3 5.0 5.4 3.8 6.1 7.0 7.6 4.8 5.0 5.5 5.7 6.2 6.6 6.8 6.9 7.6 6.1 2.7 2.9 6.7 nan nan nan nan nan nan
5.0 3.5 3.5 nan nan 3.8 4.3 5.2 5.2 5.0 5.3 4.5 3.7 2.5 3.7 0.0 4.4 5.8 6.0 4.8 5.0 5.4 3.8 7.0 5.1 6.2 7.6 6.4 6.5 6.3 6.6 6.8 6.9 6.8 7.1 7.0 7.5 7.6 7.9 5.0 nan nan nan nan
nan 3.6 nan 3.7 4.0 4.8 5.3 5.2 4.3 4.7 3.9 3.9 5.1 5.7 6.7 6.5 6.1 6.6 5.4 5.2 5.0 5.8 5.6 7.0 6.8 7.3 6.8 7.4 7.4 7.1 6.7 7.0 7.2 6.9 7.3 7.1 7.0 7.1 7.2 7.0 5.0 0.0 nan nan
nan 4.3 4.2 4.8 5.0 6.2 5.8 7.1 5.3 4.5 4.9 4.2 5.0 4.9 5.4 6.6 6.4 6.4 6.4 6.3 5.3 3.7 6.0 6.2 7.3 7.1 7.4 7.5 7.4 7.3 6.0 6.8 7.3 7.6 7.3 7.3 7.2 6.9 6.5 5.4 2.2 nan nan nan
4.7 4.6 5.7 5.9 6.5 5.8 5.2 5.3 4.2 3.9 3.5 4.5 5.2 4.5 5.8 5.9 6.1 6.0 5.7 6.7 7.7 7.2 8.5 7.8 5.6 7.4 7.9 7.5 7.3 7.7 8.0 7.6 7.0 6.2 6.3 6.7 5.0 4.7 3.2 3.0 0.0 nan nan nan
4.5 4.7 6.4 5.9 5.1 5.1 5.3 3.8 3.5 3.2 4.0 4.9 5.2 4.8 6.4 4.5 5.9 7.1 5.3 7.5 7.5 7.9 7.6 5.4 3.3 6.7 7.4 7.8 7.8 8.0 8.1 8.0 7.9 7.8 5.3 5.0 5.1 5.3 4.9 3.1 2.9 nan nan nan
4.2 4.5 5.3 5.9 4.6 5.0 4.3 3.7 3.9 3.1 4.7 3.6 4.9 5.0 5.6 5.3 5.8 7.0 6.8 7.4 8.0 5.6 4.3 3.4 4.7 7.7 7.1 7.9 7.8 7.8 7.8 7.9 7.8 7.5 6.9 7.1 6.6 6.4 3.9 3.4 3.3 3.3 3.4 3.6
4.2 5.2 5.7 5.0 4.5 5.3 6.0 6.8 5.8 4.9 4.4 4.7 4.8 6.4 5.4 5.2 6.9 7.5 5.3 6.5 5.3 5.0 4.4 4.7 6.6 7.5 7.6 7.4 7.4 7.7 8.0 8.0 8.0 8.0 7.7 7.2 7.1 6.5 6.4 5.5 5.9 4.4 4.9 4.7